7 * 24
多渠道服务支持
STARLINK-6144是美国SpaceX公司星链(Starlink)卫星互联网项目中的一颗卫星,于2023年6月12日由猎鹰9号火箭在大西洋海域完成发射任务,本次任务同步完成了第一级助推器海上回收。 星链项目旨在打造近地轨道巨型卫星星座,为全球偏远地区提供高速低延迟宽带互联网服务。该卫星入轨后,将助力星链进一步完善全球网络覆盖,推动卫星互联网服务普及。
美国
(US)
| 数据来源 | 国际轨道数据 |
| 星历时间: | 2026-09-12T07:57:54+0800 15小时前 查看轨道信息 |
| 半长轴: | 6861.2km |
| 偏心率: | 0.0001235 |
| 轨道倾角: | 43.002° |
| 近地点辐角 | 265.575° |
| 升交点赤经 | 116.455° |
| 平近点角 | 94.496° |
| 近地点: | 482.215km |
| 远地点: | 483.911km |
| 周期: | 94.267分钟 |
| 每日圈数: | 15.275755 |